Wind_Speed
7 7 7 7 7 8 8 9 9 9 9 9 8 9 9 8 8 8 8 8 8 8 8 8 8 8 8 7 7 7 7 7 6 7 7 7 8 8 8 9 9 9 9
5 6 7 7 7 7 7 8 8 9 9 8 8 8 8 8 9 9 9 9 8 9 9 9 9 8 8 8 8 7 7 7 7 8 8 8 9 9 10 10 10 10 11
3 5 6 6 6 6 7 7 8 8 8 9 9 8 8 8 9 9 10 10 10 10 10 10 11 10 9 9 8 8 8 8 8 9 9 9 10 10 11 11 11 11 12
3 4 4 5 6 6 6 6 7 7 8 8 8 8 8 8 9 9 10 10 10 10 11 11 11 11 11 10 9 9 9 10 10 11 11 11 12 11 11 11 12 12 13
4 4 4 4 5 5 6 6 7 8 8 8 8 9 9 9 9 10 10 11 11 11 12 12 11 12 12 11 11 11 11 11 11 12 12 12 13 13 12 12 12 13 14
5 4 4 4 5 5 6 6 7 8 8 9 9 9 10 10 10 11 12 12 12 13 13 14 13 13 14 13 13 13 13 13 13 14 14 14 14 14 14 14 14 15 15
6 6 5 5 5 6 7 7 8 8 9 10 10 10 10 11 12 12 13 14 14 14 14 14 14 14 15 14 14 14 15 15 16 16 15 15 14 15 15 16 16 16 17
6 6 6 6 6 7 8 8 9 10 10 11 11 12 12 13 13 14 15 15 16 16 16 16 16 16 16 15 15 15 16 16 17 17 16 15 16 16 17 17 17 17 19
7 6 7 7 8 8 9 10 10 11 12 12 13 13 14 15 15 16 16 17 17 18 17 17 17 17 17 17 17 17 17 17 17 17 18 18 18 19 18 19 19 19 20
8 9 9 9 10 10 10 11 12 13 14 14 14 15 16 17 17 18 19 19 19 19 19 18 18 19 19 19 19 18 19 19 18 19 19 20 20 20 21 20 21 21 21
10 11 11 11 10 11 12 13 14 15 16 17 17 17 18 19 20 21 20 20 21 20 20 19 20 20 21 21 20 20 20 20 20 20 21 21 21 22 23 23 23 23 23
10 11 12 11 11 12 13 14 16 17 17 18 19 20 20 21 22 22 22 22 22 22 21 21 21 21 22 22 22 21 22 22 22 22 23 22 23 24 24 25 25 25 25
11 12 13 13 13 14 15 16 18 18 19 19 20 22 22 22 23 23 23 23 23 23 24 24 23 23 23 24 23 23 23 24 24 24 24 25 25 25 26 26 27 27 27
12 13 14 14 15 16 17 18 19 20 19 20 22 22 22 23 23 24 24 24 24 24 24 24 24 24 24 24 24 24 25 26 26 26 26 26 27 27 27 27 27 27 27
14 14 15 16 17 18 19 20 20 20 20 21 23 23 23 24 24 24 25 24 24 25 25 25 24 24 24 25 25 26 27 27 27 27 27 28 28 28 28 27 27 27 27
16 16 17 18 19 20 21 21 22 21 22 23 24 24 24 24 25 25 25 24 25 24 25 25 25 25 25 26 26 27 27 28 27 28 28 29 28 28 28 28 27 27 27
16 17 19 20 21 21 21 21 22 22 23 24 24 25 25 26 25 25 25 25 26 26 26 26 26 26 26 27 27 27 28 28 28 29 29 29 29 29 28 27 27 27 28
18 19 20 20 20 21 21 22 23 24 24 25 25 26 26 26 26 26 27 27 27 27 27 26 27 27 27 27 28 28 28 29 29 29 29 29 29 29 29 29 29 28 29
20 20 21 21 21 21 22 23 24 25 25 26 26 27 27 27 27 28 28 28 28 28 28 28 28 28 28 29 29 28 28 29 29 29 29 29 28 28 29 29 29 29 29
21 21 21 21 21 22 23 24 25 26 27 28 28 28 28 28 28 28 29 29 29 29 29 30 30 29 30 30 30 30 29 29 29 29 29 29 28 29 29 30 30 30 29
21 21 22 23 23 24 24 26 26 27 28 29 29 30 30 30 30 30 30 30 31 30 30 30 30 30 31 31 31 31 31 30 30 29 29 29 30 30 30 31 30 30 29
21 22 23 23 24 25 26 27 28 29 29 30 30 31 31 30 30 30 31 31 31 31 31 31 31 31 31 31 31 31 31 31 30 30 30 30 31 31 30 31 30 29 29
23 24 24 25 26 27 27 28 29 29 30 31 31 32 32 31 31 32 32 32 31 31 32 32 32 32 31 31 30 31 31 31 31 30 30 31 31 30 31 30 30 29 29
26 27 26 27 27 28 29 29 29 30 31 32 32 33 32 32 33 33 33 33 32 31 31 32 31 31 31 30 30 30 30 31 31 31 30 30 30 30 30 29 29 29 28
27 27 27 27 28 29 29 30 30 31 32 33 33 33 33 33 33 32 33 33 33 33 32 32 32 31 30 30 29 29 29 30 30 30 30 29 29 29 28 28 28 28 28
26 26 27 27 28 29 29 29 30 31 32 33 33 33 33 33 33 33 33 33 33 33 32 32 31 31 30 29 29 29 29 29 29 29 28 28 27 27 26 27 27 26 26
Wind_Direction
29 28 28 28 27 29 35 37 36 37 36 35 35 33 30 27 24 23 23 22 20 14 7 2 357 352 348 346 343 338 339 338 331 323 317 312 309 306 302 302 300 296 296
22 19 19 21 21 23 28 32 32 33 31 27 25 22 20 17 13 10 8 4 2 357 352 346 343 340 339 336 335 332 331 325 321 320 319 315 305 298 296 296 296 294 293
3 12 15 14 17 19 24 25 22 20 21 20 16 13 11 8 5 4 0 356 352 349 344 337 332 330 328 326 325 326 324 318 315 314 313 313 310 304 301 297 296 294 293
326 349 356 9 13 12 15 14 10 10 9 9 8 7 4 358 353 350 349 346 342 338 337 333 326 324 323 320 317 314 315 312 310 309 308 307 306 299 297 296 295 295 293
299 325 342 357 4 2 2 0 356 358 359 358 359 356 353 350 346 343 342 339 336 332 329 327 325 322 321 318 314 312 307 307 308 310 310 309 305 301 300 296 294 294 293
284 299 321 331 341 345 347 350 346 346 349 351 350 348 346 342 338 335 333 331 328 326 324 324 322 318 319 317 313 309 308 308 307 307 308 307 305 302 299 296 296 294 292
283 291 307 317 322 328 331 335 337 337 338 340 341 339 336 334 332 330 328 325 322 321 320 319 321 321 320 317 310 308 308 308 307 305 305 304 303 303 301 299 294 293 291
279 287 300 304 314 320 320 322 325 329 330 330 329 330 328 327 326 325 322 320 317 317 316 315 315 318 318 316 311 310 308 307 308 305 304 305 305 304 303 301 299 295 293
280 285 293 300 307 315 317 316 317 320 322 323 322 322 321 320 319 319 318 315 312 311 310 308 308 310 311 310 307 308 307 306 306 305 303 304 304 302 302 300 297 295 294
274 278 288 297 304 309 313 314 314 315 317 318 318 315 316 315 313 313 313 312 308 308 307 304 304 305 305 305 303 303 302 302 302 303 304 304 305 303 302 298 297 296 295
272 274 280 289 297 305 311 312 312 312 313 313 312 311 310 309 308 308 309 309 305 304 303 302 302 301 301 302 301 300 301 301 302 303 303 304 305 303 301 299 296 295 295
277 278 282 288 295 302 307 308 309 309 309 309 307 307 306 306 307 307 307 306 305 304 302 302 301 299 299 300 299 300 300 300 301 301 302 303 304 304 302 299 298 297 295
280 282 284 287 296 301 304 306 307 307 307 306 306 305 305 305 306 305 304 303 302 302 302 303 299 298 297 298 298 299 301 300 299 300 301 301 302 302 301 299 298 297 296
278 281 284 285 292 298 301 302 304 305 306 306 306 305 305 306 305 305 303 302 302 303 302 303 303 301 298 297 298 299 300 300 299 298 298 299 300 300 300 299 297 296 296
277 280 283 286 291 295 298 299 300 302 304 306 308 307 305 306 305 304 304 302 303 304 303 304 304 303 301 299 298 298 299 299 299 299 298 298 299 299 297 297 296 296 295
280 281 282 286 289 294 298 299 300 303 305 306 307 307 306 306 305 305 304 302 302 305 304 303 303 303 302 300 299 299 300 301 300 300 298 297 296 297 296 296 296 296 295
285 285 285 286 287 291 295 299 303 305 306 306 307 307 306 306 305 304 305 305 305 304 303 303 301 301 301 300 299 299 300 300 300 299 297 296 295 295 294 294 295 296 296
287 287 289 289 292 294 296 299 301 302 304 305 306 305 305 305 304 305 305 305 304 303 302 302 301 300 300 300 300 299 299 299 300 299 298 297 295 294 293 293 294 295 297
286 286 288 289 291 295 298 298 300 303 304 305 305 305 305 304 304 304 303 303 303 302 300 300 300 300 300 300 299 299 300 300 300 300 299 298 297 296 296 295 296 296 296
287 289 289 289 291 295 298 299 300 303 305 305 305 304 304 304 304 303 302 301 300 301 300 300 299 299 300 299 297 299 300 300 300 300 299 298 297 296 296 297 297 297 296
287 286 287 290 292 293 296 298 299 301 304 304 304 305 304 303 303 303 302 301 301 300 300 300 300 299 299 299 297 298 299 299 299 299 299 297 296 295 295 295 296 295 294
289 289 290 292 293 293 294 296 298 301 303 303 304 304 304 304 303 302 302 301 301 300 300 300 299 299 298 298 297 296 298 298 299 298 298 297 296 295 295 295 295 294 294
289 292 293 293 293 294 295 296 299 301 303 303 303 303 303 303 302 301 301 302 301 300 300 300 299 299 298 297 297 297 296 298 299 299 299 298 297 296 295 295 294 293 293
287 291 292 295 295 295 295 298 300 301 303 303 302 302 303 302 301 301 301 301 301 300 300 300 300 300 298 297 297 296 296 297 298 298 298 298 297 296 295 295 296 295 294
288 289 292 295 296 296 298 300 301 302 303 303 304 303 302 302 302 302 303 303 302 301 301 301 301 301 300 298 297 296 297 298 298 298 298 298 297 297 296 295 296 296 294
288 291 294 295 297 298 300 301 303 304 304 305 304 303 303 302 302 302 303 303 302 301 301 300 300 299 300 298 297 298 300 300 300 300 299 299 300 299 298 297 296 296 295
Height
5895 5894 5893 5891 5890 5889 5888 5886 5885 5883 5882 5881 5880 5879 5877 5876 5875 5874 5873 5871 5870 5869 5868 5867 5866 5865 5864 5863 5862 5861 5860 5859 5858 5857 5857 5856 5855 5854 5853 5852 5851 5850 5849
5896 5894 5893 5892 5891 5890 5889 5887 5886 5885 5883 5882 5881 5880 5878 5877 5876 5874 5873 5872 5871 5869 5868 5867 5866 5865 5864 5862 5861 5860 5859 5858 5857 5856 5855 5854 5854 5852 5851 5850 5848 5848 5847
5895 5894 5893 5892 5891 5890 5889 5888 5887 5886 5884 5883 5881 5880 5879 5877 5876 5875 5874 5872 5871 5869 5868 5866 5865 5864 5862 5861 5860 5859 5858 5857 5856 5855 5854 5853 5851 5850 5849 5847 5846 5845 5844
5895 5894 5893 5892 5891 5890 5889 5888 5887 5886 5884 5883 5882 5880 5879 5877 5876 5874 5873 5871 5870 5868 5867 5865 5863 5862 5861 5860 5859 5858 5856 5855 5854 5853 5851 5850 5849 5848 5846 5845 5844 5842 5841
5894 5893 5893 5892 5891 5890 5889 5888 5887 5886 5884 5883 5881 5880 5878 5877 5875 5874 5872 5870 5869 5867 5865 5864 5862 5861 5860 5858 5857 5855 5854 5853 5852 5850 5849 5848 5846 5844 5843 5842 5841 5839 5837
5893 5893 5892 5891 5891 5890 5889 5888 5887 5885 5884 5882 5881 5879 5878 5876 5875 5873 5871 5869 5867 5866 5864 5862 5860 5859 5858 5856 5855 5853 5851 5850 5849 5847 5846 5844 5843 5841 5840 5838 5837 5835 5833
5892 5892 5891 5891 5890 5889 5888 5887 5885 5884 5883 5881 5880 5878 5877 5875 5874 5872 5870 5868 5866 5864 5862 5860 5858 5856 5855 5853 5852 5850 5849 5847 5846 5844 5843 5841 5839 5837 5836 5835 5833 5831 5829
5891 5891 5891 5890 5889 5888 5887 5886 5884 5883 5882 5880 5878 5876 5875 5873 5872 5870 5868 5866 5863 5861 5859 5857 5856 5854 5852 5850 5849 5847 5845 5844 5842 5840 5839 5837 5835 5833 5832 5830 5829 5827 5825
5890 5890 5889 5888 5888 5887 5885 5884 5883 5881 5880 5878 5876 5874 5873 5871 5869 5867 5865 5862 5860 5858 5856 5854 5852 5850 5849 5847 5845 5843 5842 5840 5838 5836 5835 5833 5831 5829 5827 5825 5824 5823 5820
5889 5888 5887 5886 5886 5885 5884 5882 5881 5879 5877 5876 5874 5872 5870 5868 5866 5864 5861 5859 5856 5854 5852 5850 5848 5846 5845 5843 5841 5839 5837 5835 5834 5832 5830 5828 5826 5824 5822 5820 5818 5817 5815
5887 5886 5886 5885 5884 5882 5881 5880 5878 5876 5874 5872 5870 5868 5866 5864 5862 5859 5857 5854 5852 5849 5847 5845 5844 5842 5840 5838 5836 5834 5832 5830 5829 5827 5825 5823 5821 5819 5817 5814 5812 5810 5808
5884 5884 5883 5882 5881 5880 5878 5876 5874 5872 5870 5869 5867 5865 5862 5860 5857 5855 5852 5850 5847 5845 5842 5840 5838 5836 5834 5833 5831 5829 5827 5825 5823 5821 5819 5817 5815 5813 5810 5808 5806 5803 5801
5881 5881 5880 5879 5878 5876 5875 5873 5871 5869 5866 5864 5862 5860 5858 5855 5853 5850 5848 5845 5842 5840 5837 5835 5832 5830 5829 5827 5825 5823 5821 5819 5817 5815 5813 5811 5808 5806 5804 5801 5799 5796 5794
5878 5877 5876 5875 5874 5872 5871 5868 5866 5864 5862 5859 5857 5855 5852 5850 5847 5845 5843 5840 5837 5834 5831 5829 5826 5824 5822 5821 5819 5817 5815 5812 5810 5808 5806 5804 5802 5800 5797 5795 5792 5790 5787
5874 5873 5873 5872 5870 5868 5866 5864 5862 5859 5857 5854 5852 5850 5847 5845 5842 5840 5837 5833 5831 5828 5826 5824 5821 5818 5816 5814 5813 5810 5808 5805 5803 5801 5799 5797 5795 5792 5790 5787 5785 5783 5780
5870 5869 5868 5867 5866 5864 5862 5859 5857 5855 5852 5850 5847 5845 5842 5839 5837 5834 5831 5827 5825 5823 5820 5818 5815 5813 5810 5808 5806 5803 5801 5798 5796 5794 5792 5790 5788 5785 5782 5780 5778 5776 5773
5866 5865 5864 5862 5860 5858 5856 5854 5852 5850 5847 5845 5842 5839 5836 5833 5831 5828 5824 5822 5819 5817 5814 5811 5809 5807 5804 5802 5799 5797 5794 5792 5789 5787 5785 5782 5780 5777 5775 5772 5770 5768 5765
5861 5860 5858 5857 5855 5853 5851 5849 5847 5844 5842 5839 5837 5834 5831 5828 5825 5822 5819 5816 5813 5810 5807 5805 5802 5800 5797 5795 5792 5790 5787 5785 5782 5779 5777 5774 5772 5769 5767 5765 5762 5760 5757
5856 5855 5853 5851 5849 5847 5845 5843 5841 5839 5836 5833 5830 5828 5825 5822 5819 5815 5812 5809 5806 5803 5800 5798 5795 5793 5790 5787 5785 5782 5780 5777 5774 5772 5769 5766 5764 5761 5759 5757 5754 5752 5749
5851 5849 5847 5845 5844 5842 5840 5838 5835 5833 5830 5827 5824 5821 5818 5815 5812 5809 5805 5802 5799 5796 5793 5790 5788 5785 5782 5780 5777 5774 5771 5769 5767 5764 5761 5758 5756 5753 5750 5748 5746 5744 5741
5845 5843 5842 5840 5838 5836 5834 5832 5829 5826 5823 5820 5817 5814 5811 5808 5804 5801 5798 5795 5791 5789 5786 5783 5780 5777 5774 5771 5769 5766 5763 5761 5758 5756 5753 5750 5747 5745 5742 5740 5737 5735 5732
5839 5837 5836 5834 5832 5830 5828 5825 5823 5820 5817 5813 5810 5807 5803 5800 5797 5794 5790 5787 5784 5781 5777 5774 5771 5768 5765 5763 5760 5758 5755 5752 5750 5747 5745 5742 5739 5736 5733 5730 5728 5726 5724
5833 5831 5829 5827 5825 5823 5820 5818 5815 5812 5809 5806 5803 5799 5796 5792 5789 5786 5782 5779 5775 5772 5769 5766 5762 5759 5756 5754 5751 5749 5746 5744 5741 5739 5736 5733 5730 5727 5724 5722 5719 5717 5715
5826 5824 5822 5821 5818 5816 5813 5811 5808 5805 5802 5798 5795 5791 5788 5784 5781 5777 5774 5770 5767 5764 5760 5757 5754 5751 5748 5745 5743 5740 5738 5735 5733 5730 5727 5724 5721 5719 5716 5713 5710 5708 5706
5819 5817 5815 5813 5811 5808 5806 5803 5800 5797 5793 5790 5786 5783 5779 5776 5772 5768 5765 5761 5758 5754 5751 5748 5745 5742 5740 5737 5734 5731 5729 5726 5724 5721 5718 5715 5713 5710 5707 5705 5702 5700 5697
5812 5810 5808 5806 5804 5801 5798 5795 5792 5789 5785 5782 5778 5774 5771 5767 5764 5760 5756 5752 5749 5746 5742 5740 5737 5734 5731 5728 5726 5723 5721 5718 5715 5713 5710 5707 5704 5702 5699 5697 5694 5692 5690